SWA1542 KDAL-KLAS

Flight info

Callsign SWA1542
Flight time N/A
Altitude 34000
Route KKITY5 BRHMA CNX ZUN HAHAA RKSTR4
Aircraft B738/M-SADE2E3GIJ4RWZ/LB1D1

Departure

Time 2026-05-04 13:19
Airport Dallas Love Field (KDAL)

Arrival

Time N/A
Airport Harry Reid International Airport (KLAS)
Time Latitude Longitude Altitude Speed Heading
2026-05-04 12:56 32.84646 -96.84798 490 ft 0 kts 180°
2026-05-04 13:09 32.84656 -96.84798 483 ft 3 kts 195°
2026-05-04 13:09 32.84671 -96.84788 483 ft 3 kts 216°
2026-05-04 13:09 32.84678 -96.84782 486 ft 0 kts 207°
2026-05-04 13:13 32.84677 -96.84784 483 ft 1 kts 223°
2026-05-04 13:13 32.84680 -96.84789 484 ft 1 kts 287°
2026-05-04 13:13 32.84701 -96.84812 486 ft 6 kts 342°
2026-05-04 13:14 32.84750 -96.84811 481 ft 8 kts 12°
2026-05-04 13:14 32.84805 -96.84807 486 ft 8 kts 336°
2026-05-04 13:14 32.84853 -96.84850 484 ft 9 kts 318°
2026-05-04 13:14 32.84895 -96.84898 489 ft 8 kts 316°
2026-05-04 13:15 32.84951 -96.84962 489 ft 14 kts 315°
2026-05-04 13:15 32.85033 -96.85059 490 ft 19 kts 317°
2026-05-04 13:15 32.85142 -96.85183 487 ft 24 kts 316°
2026-05-04 13:15 32.85268 -96.85330 489 ft 27 kts 315°
2026-05-04 13:16 32.85400 -96.85485 480 ft 26 kts 315°
2026-05-04 13:16 32.85525 -96.85627 483 ft 24 kts 316°
2026-05-04 13:16 32.85575 -96.85685 484 ft 0 kts 315°
2026-05-04 13:17 32.85576 -96.85686 484 ft 1 kts 315°
2026-05-04 13:17 32.85587 -96.85699 484 ft 0 kts 315°
2026-05-04 13:18 32.85594 -96.85707 484 ft 9 kts 315°
2026-05-04 13:18 32.85679 -96.85719 478 ft 15 kts 43°
2026-05-04 13:18 32.85681 -96.85625 475 ft 11 kts 129°
2026-05-04 13:19 32.85606 -96.85537 483 ft 34 kts 135°
2026-05-04 13:19 32.85248 -96.85124 486 ft 107 kts 136°
2026-05-04 13:19 32.84565 -96.84333 577 ft 159 kts 136°
2026-05-04 13:19 32.83762 -96.83354 1156 ft 174 kts 139°
2026-05-04 13:20 32.82845 -96.82377 1933 ft 177 kts 151°
2026-05-04 13:20 32.81840 -96.81544 2771 ft 177 kts 154°
2026-05-04 13:20 32.80838 -96.80645 3562 ft 186 kts 149°
2026-05-04 13:20 32.79831 -96.79614 4319 ft 196 kts 145°
2026-05-04 13:21 32.78764 -96.78428 4627 ft 224 kts 142°
2026-05-04 13:21 32.77591 -96.77051 4882 ft 249 kts 141°
2026-05-04 13:21 32.76309 -96.75502 5193 ft 273 kts 139°
2026-05-04 13:21 32.74949 -96.73884 5969 ft 280 kts 139°
2026-05-04 13:22 32.73535 -96.72257 6859 ft 286 kts 139°
2026-05-04 13:22 32.71909 -96.70891 7629 ft 289 kts 163°
2026-05-04 13:22 32.69939 -96.70573 8407 ft 286 kts 191°
2026-05-04 13:22 32.68084 -96.71314 9273 ft 282 kts 217°
2026-05-04 13:23 32.66713 -96.72922 10117 ft 277 kts 243°
2026-05-04 13:23 32.66012 -96.75000 11031 ft 270 kts 262°
2026-05-04 13:23 32.65777 -96.77170 12001 ft 268 kts 268°
2026-05-04 13:23 32.65623 -96.79384 12902 ft 270 kts 269°
2026-05-04 13:24 32.65482 -96.81612 13814 ft 271 kts 269°
2026-05-04 13:24 32.65337 -96.83856 14608 ft 274 kts 269°
2026-05-04 13:24 32.65184 -96.86119 15370 ft 277 kts 268°
2026-05-04 13:25 32.64859 -96.90731 16897 ft 284 kts 267°
2026-05-04 13:25 32.64688 -96.93090 17655 ft 288 kts 267°
2026-05-04 13:25 32.64513 -96.95465 18405 ft 291 kts 267°
2026-05-04 13:25 32.64335 -96.97870 19110 ft 294 kts 267°
2026-05-04 13:26 32.64155 -97.00266 19800 ft 295 kts 268°
2026-05-04 13:26 32.63972 -97.02704 20489 ft 297 kts 268°
2026-05-04 13:26 32.63787 -97.05162 21142 ft 300 kts 268°
2026-05-04 13:26 32.63599 -97.07644 21798 ft 303 kts 268°
2026-05-04 13:27 32.63410 -97.10146 22451 ft 306 kts 268°
2026-05-04 13:27 32.63218 -97.12664 23107 ft 308 kts 269°
2026-05-04 13:27 32.63024 -97.15207 23727 ft 311 kts 269°
2026-05-04 13:27 32.62828 -97.17769 24292 ft 312 kts 269°
2026-05-04 13:28 32.62630 -97.20339 24887 ft 312 kts 269°
2026-05-04 13:28 32.62435 -97.22873 25469 ft 313 kts 269°
2026-05-04 13:28 32.62236 -97.25461 26029 ft 314 kts 270°
2026-05-04 13:28 32.62035 -97.28051 26573 ft 316 kts 270°
2026-05-04 13:29 32.61945 -97.30644 27101 ft 313 kts 278°
2026-05-04 13:29 32.62237 -97.33199 27644 ft 312 kts 283°
2026-05-04 13:29 32.62755 -97.35702 28182 ft 312 kts 290°
2026-05-04 13:29 32.63585 -97.38080 28707 ft 312 kts 295°
2026-05-04 13:30 32.64523 -97.40413 29223 ft 314 kts 296°
2026-05-04 13:30 32.65468 -97.42720 29725 ft 315 kts 296°
2026-05-04 13:30 32.66442 -97.45094 30201 ft 316 kts 296°
2026-05-04 13:30 32.67387 -97.47412 30695 ft 316 kts 296°
2026-05-04 13:31 32.68340 -97.49761 31181 ft 314 kts 296°
2026-05-04 13:31 32.69282 -97.52093 31705 ft 312 kts 296°
2026-05-04 13:31 32.70215 -97.54410 32228 ft 309 kts 296°
2026-05-04 13:31 32.71140 -97.56710 32715 ft 308 kts 296°
2026-05-04 13:32 32.72061 -97.59003 33162 ft 307 kts 296°
2026-05-04 13:32 32.72976 -97.61284 33613 ft 305 kts 296°
2026-05-04 13:32 32.73887 -97.63556 34015 ft 306 kts 296°
2026-05-04 13:32 32.74814 -97.65868 34046 ft 313 kts 296°
2026-05-04 13:33 32.76724 -97.70636 34088 ft 326 kts 296°
2026-05-04 13:33 32.78412 -97.75750 34099 ft 341 kts 289°
2026-05-04 13:34 32.79693 -97.81239 34095 ft 352 kts 289°
2026-05-04 13:34 32.81005 -97.86906 33959 ft 357 kts 289°
2026-05-04 13:35 32.82991 -97.95454 33969 ft 357 kts 289°
2026-05-04 13:36 32.84318 -98.01154 33967 ft 357 kts 288°
2026-05-04 13:36 32.85631 -98.06807 33968 ft 356 kts 288°
2026-05-04 13:37 32.86948 -98.12488 33965 ft 356 kts 288°
2026-05-04 13:37 32.88260 -98.18157 33963 ft 355 kts 288°
2026-05-04 13:38 32.89572 -98.23840 33961 ft 355 kts 288°
2026-05-04 13:38 32.90874 -98.29478 33938 ft 354 kts 288°
2026-05-04 13:39 32.92176 -98.35128 33913 ft 353 kts 288°
2026-05-04 13:39 32.93472 -98.40766 33916 ft 353 kts 288°
2026-05-04 13:40 32.94766 -98.46405 33902 ft 353 kts 288°
2026-05-04 13:40 32.96057 -98.52046 33900 ft 353 kts 288°
2026-05-04 13:41 32.97347 -98.57696 33889 ft 353 kts 288°
2026-05-04 13:41 32.98633 -98.63343 33895 ft 353 kts 288°
2026-05-04 13:42 33.00551 -98.71784 33864 ft 353 kts 287°
2026-05-04 13:42 33.01835 -98.77451 33886 ft 354 kts 287°
2026-05-04 13:43 33.03119 -98.83132 33893 ft 355 kts 287°
2026-05-04 13:43 33.04401 -98.88818 33892 ft 356 kts 287°
2026-05-04 13:44 33.05684 -98.94524 33886 ft 356 kts 287°
2026-05-04 13:44 33.06967 -99.00238 33877 ft 356 kts 287°
2026-05-04 13:45 33.08246 -99.05949 33877 ft 356 kts 287°
2026-05-04 13:45 33.09515 -99.11632 33860 ft 357 kts 287°
2026-05-04 13:46 33.10792 -99.17359 33868 ft 357 kts 287°
2026-05-04 13:46 33.12067 -99.23095 33876 ft 358 kts 287°
2026-05-04 13:47 33.13340 -99.28834 33859 ft 358 kts 287°
2026-05-04 13:47 33.14613 -99.34582 33850 ft 358 kts 287°
2026-05-04 13:48 33.15882 -99.40332 33849 ft 358 kts 287°
2026-05-04 13:48 33.17150 -99.46091 33842 ft 358 kts 287°
2026-05-04 13:49 33.18417 -99.51854 33836 ft 360 kts 287°
2026-05-04 13:49 33.19685 -99.57639 33849 ft 360 kts 286°
2026-05-04 13:50 33.20964 -99.63392 33843 ft 361 kts 287°
2026-05-04 13:50 33.22282 -99.69174 33856 ft 361 kts 287°
2026-05-04 13:51 33.23598 -99.74962 33854 ft 361 kts 287°
2026-05-04 13:51 33.24907 -99.80744 33848 ft 361 kts 287°
2026-05-04 13:52 33.26867 -99.89434 33847 ft 361 kts 286°
2026-05-04 13:53 33.27951 -99.94258 33849 ft 361 kts 286°
2026-05-04 13:53 33.29463 -100.01003 33843 ft 361 kts 286°
2026-05-04 13:54 33.31190 -100.08731 33833 ft 360 kts 286°
2026-05-04 13:55 33.33120 -100.17395 33831 ft 359 kts 286°
2026-05-04 13:55 33.35033 -100.26013 33824 ft 359 kts 285°
2026-05-04 13:56 33.36314 -100.31798 33827 ft 359 kts 285°
2026-05-04 13:57 33.38230 -100.40480 33822 ft 360 kts 285°
2026-05-04 13:58 33.40778 -100.52077 33824 ft 360 kts 285°
2026-05-04 13:58 33.42677 -100.60759 33815 ft 361 kts 285°
2026-05-04 13:59 33.43951 -100.66596 33819 ft 363 kts 285°
2026-05-04 14:00 33.45866 -100.75402 33817 ft 365 kts 285°
2026-05-04 14:00 33.47773 -100.84206 33856 ft 366 kts 285°
2026-05-04 14:01 33.49048 -100.90108 33827 ft 364 kts 285°
2026-05-04 14:02 33.50947 -100.98924 33820 ft 363 kts 285°
2026-05-04 14:02 33.52195 -101.04741 33813 ft 362 kts 285°
2026-05-04 14:03 33.53397 -101.10603 33811 ft 362 kts 284°
2026-05-04 14:03 33.54578 -101.16478 33811 ft 362 kts 284°
2026-05-04 14:04 33.56345 -101.25273 33823 ft 361 kts 284°
2026-05-04 14:04 33.57513 -101.31092 33783 ft 361 kts 284°
2026-05-04 14:05 33.59276 -101.39894 33816 ft 362 kts 284°
2026-05-04 14:06 33.60452 -101.45783 33840 ft 363 kts 284°
2026-05-04 14:06 33.61629 -101.51690 33867 ft 365 kts 284°
2026-05-04 14:07 33.62800 -101.57587 33895 ft 365 kts 284°
2026-05-04 14:07 33.63978 -101.63534 33926 ft 366 kts 284°
2026-05-04 14:08 33.65154 -101.69481 33938 ft 366 kts 284°
2026-05-04 14:08 33.66328 -101.75442 33971 ft 366 kts 284°
2026-05-04 14:09 33.68072 -101.84322 33962 ft 365 kts 284°
2026-05-04 14:10 33.69816 -101.93237 33958 ft 365 kts 284°
2026-05-04 14:10 33.70973 -101.99173 33929 ft 364 kts 284°
2026-05-04 14:11 33.72126 -102.05105 33882 ft 364 kts 284°
2026-05-04 14:11 33.73839 -102.13948 33851 ft 364 kts 284°
2026-05-04 14:12 33.74982 -102.19868 33883 ft 364 kts 284°
2026-05-04 14:13 33.76692 -102.28754 33809 ft 364 kts 284°
2026-05-04 14:13 33.77830 -102.34688 33809 ft 364 kts 283°
2026-05-04 14:14 33.78966 -102.40628 33810 ft 364 kts 283°
2026-05-04 14:14 33.80665 -102.49540 33807 ft 364 kts 283°
2026-05-04 14:15 33.82915 -102.61408 33835 ft 365 kts 283°
2026-05-04 14:16 33.84595 -102.70310 33814 ft 365 kts 283°
2026-05-04 14:17 33.86274 -102.79244 33799 ft 364 kts 283°
2026-05-04 14:18 33.87943 -102.88163 33815 ft 364 kts 283°
2026-05-04 14:19 33.90151 -103.00019 33822 ft 364 kts 283°
2026-05-04 14:19 33.91252 -103.05958 33825 ft 364 kts 283°
2026-05-04 14:20 33.92353 -103.11914 33828 ft 364 kts 283°
2026-05-04 14:20 33.93448 -103.17854 33822 ft 363 kts 283°
2026-05-04 14:21 33.95087 -103.26774 33831 ft 363 kts 283°
2026-05-04 14:21 33.96169 -103.32687 33834 ft 363 kts 283°
2026-05-04 14:22 33.97254 -103.38634 33836 ft 363 kts 283°
2026-05-04 14:22 33.98338 -103.44590 33832 ft 363 kts 282°
2026-05-04 14:23 33.99953 -103.53496 33823 ft 363 kts 282°
2026-05-04 14:24 34.01031 -103.59461 33821 ft 363 kts 282°
2026-05-04 14:24 34.02106 -103.65427 33815 ft 363 kts 282°
2026-05-04 14:25 34.03175 -103.71384 33811 ft 363 kts 282°
2026-05-04 14:25 34.04768 -103.80282 33808 ft 363 kts 282°
2026-05-04 14:26 34.05830 -103.86240 33802 ft 363 kts 282°
2026-05-04 14:26 34.06891 -103.92206 33802 ft 363 kts 282°
2026-05-04 14:27 34.07941 -103.98131 33807 ft 363 kts 282°
2026-05-04 14:27 34.08994 -104.04091 33804 ft 363 kts 282°
2026-05-04 14:28 34.10044 -104.10050 33810 ft 362 kts 282°
2026-05-04 14:28 34.11091 -104.16008 33809 ft 362 kts 282°
2026-05-04 14:29 34.13171 -104.27901 33805 ft 362 kts 281°
2026-05-04 14:30 34.14208 -104.33862 33807 ft 362 kts 281°
2026-05-04 14:31 34.15753 -104.42772 33816 ft 363 kts 281°
2026-05-04 14:32 34.17815 -104.54719 33818 ft 363 kts 281°
2026-05-04 14:32 34.18842 -104.60700 33816 ft 363 kts 281°
2026-05-04 14:33 34.19865 -104.66680 33828 ft 363 kts 281°
2026-05-04 14:33 34.20880 -104.72628 33827 ft 363 kts 281°
2026-05-04 14:34 34.21897 -104.78604 33822 ft 363 kts 281°
2026-05-04 14:34 34.22910 -104.84575 33824 ft 363 kts 281°
2026-05-04 14:35 34.23921 -104.90557 33825 ft 363 kts 281°
2026-05-04 14:35 34.24930 -104.96538 33831 ft 363 kts 281°
2026-05-04 14:36 34.25936 -105.02526 33837 ft 364 kts 281°
2026-05-04 14:36 34.26941 -105.08527 33851 ft 365 kts 281°
2026-05-04 14:37 34.27942 -105.14520 33849 ft 366 kts 281°
2026-05-04 14:37 34.28947 -105.20560 33851 ft 366 kts 281°
2026-05-04 14:38 34.29782 -105.25588 33874 ft 367 kts 281°
2026-05-04 14:38 34.30782 -105.31633 33856 ft 366 kts 281°
2026-05-04 14:39 34.31780 -105.37682 33878 ft 366 kts 280°
2026-05-04 14:39 34.32774 -105.43730 33878 ft 366 kts 280°
2026-05-04 14:40 34.34259 -105.52799 33892 ft 366 kts 280°
2026-05-04 14:40 34.35246 -105.58848 33895 ft 366 kts 280°
2026-05-04 14:41 34.36231 -105.64901 33935 ft 366 kts 279°
2026-05-04 14:42 34.38366 -105.76861 33905 ft 363 kts 281°
2026-05-04 14:42 34.39496 -105.82815 33914 ft 362 kts 281°
2026-05-04 14:43 34.40612 -105.88760 33912 ft 362 kts 281°
2026-05-04 14:43 34.41716 -105.94687 33915 ft 361 kts 281°
2026-05-04 14:44 34.42817 -106.00627 33928 ft 361 kts 280°
2026-05-04 14:44 34.43911 -106.06554 33930 ft 361 kts 280°
2026-05-04 14:45 34.45004 -106.12493 33919 ft 361 kts 280°
2026-05-04 14:45 34.46093 -106.18428 33904 ft 361 kts 280°
2026-05-04 14:46 34.47179 -106.24363 33919 ft 361 kts 280°
2026-05-04 14:46 34.48263 -106.30306 33916 ft 361 kts 280°
2026-05-04 14:47 34.49346 -106.36258 33928 ft 361 kts 279°
2026-05-04 14:47 34.50420 -106.42177 33917 ft 362 kts 279°
2026-05-04 14:48 34.51496 -106.48133 33954 ft 361 kts 279°
2026-05-04 14:48 34.52571 -106.54093 33967 ft 362 kts 279°
2026-05-04 14:49 34.53643 -106.60057 34003 ft 362 kts 279°
2026-05-04 14:49 34.54712 -106.66021 34034 ft 362 kts 279°
2026-05-04 14:50 34.55777 -106.71980 34061 ft 361 kts 279°
2026-05-04 14:50 34.56839 -106.77940 34098 ft 362 kts 279°
2026-05-04 14:51 34.57898 -106.83903 34120 ft 362 kts 279°
2026-05-04 14:51 34.58955 -106.89869 33882 ft 362 kts 279°
2026-05-04 14:52 34.60009 -106.95837 33874 ft 361 kts 279°
2026-05-04 14:52 34.61057 -107.01787 33876 ft 360 kts 279°
2026-05-04 14:53 34.62095 -107.07704 33869 ft 360 kts 279°
2026-05-04 14:53 34.63135 -107.13647 33865 ft 360 kts 279°
2026-05-04 14:54 34.64175 -107.19607 33866 ft 361 kts 279°
2026-05-04 14:54 34.65213 -107.25572 33865 ft 361 kts 278°
2026-05-04 14:55 34.66243 -107.31519 33869 ft 360 kts 279°
2026-05-04 14:55 34.67275 -107.37486 33878 ft 362 kts 279°
2026-05-04 14:56 34.68307 -107.43477 33879 ft 363 kts 279°
2026-05-04 14:56 34.69340 -107.49486 33880 ft 364 kts 279°
2026-05-04 14:57 34.70368 -107.55500 33881 ft 363 kts 279°
2026-05-04 14:57 34.71389 -107.61472 33874 ft 364 kts 278°
2026-05-04 14:58 34.72419 -107.67517 33873 ft 365 kts 278°
2026-05-04 14:58 34.73446 -107.73568 33873 ft 366 kts 278°
2026-05-04 14:59 34.74472 -107.79636 33869 ft 366 kts 278°
2026-05-04 15:00 34.76007 -107.88742 33854 ft 366 kts 278°
2026-05-04 15:00 34.77026 -107.94819 33859 ft 366 kts 278°
2026-05-04 15:01 34.78524 -108.03778 33860 ft 363 kts 278°
2026-05-04 15:01 34.79519 -108.09752 33853 ft 362 kts 278°
2026-05-04 15:02 34.80515 -108.15755 33856 ft 361 kts 278°
2026-05-04 15:02 34.81505 -108.21743 33847 ft 361 kts 278°
2026-05-04 15:03 34.82497 -108.27734 33851 ft 361 kts 278°
2026-05-04 15:03 34.83482 -108.33747 33862 ft 363 kts 278°
2026-05-04 15:04 34.84468 -108.39772 33858 ft 363 kts 278°
2026-05-04 15:04 34.85452 -108.45799 33843 ft 363 kts 278°
2026-05-04 15:05 34.86433 -108.51825 33840 ft 362 kts 277°
2026-05-04 15:05 34.87409 -108.57843 33847 ft 362 kts 278°
2026-05-04 15:06 34.88377 -108.63829 33843 ft 362 kts 278°
2026-05-04 15:07 34.89830 -108.72853 33839 ft 362 kts 277°
2026-05-04 15:07 34.90794 -108.78861 33833 ft 361 kts 277°
2026-05-04 15:08 34.91758 -108.84896 33842 ft 362 kts 277°
2026-05-04 15:08 34.92713 -108.90889 33842 ft 362 kts 277°
2026-05-04 15:09 34.93670 -108.96920 33844 ft 362 kts 277°
2026-05-04 15:09 34.94626 -109.02958 33835 ft 362 kts 277°
2026-05-04 15:10 34.96049 -109.11986 33858 ft 362 kts 277°
2026-05-04 15:10 34.96810 -109.18036 33835 ft 358 kts 264°
2026-05-04 15:11 34.95678 -109.20656 33794 ft 390 kts 213°
2026-05-04 15:11 34.93016 -109.19358 32316 ft 534 kts 110°
2026-05-04 15:11 34.94401 -109.15577 27950 ft 531 kts
2026-05-04 15:11 34.97188 -109.17131 24932 ft 454 kts 277°
2026-05-04 15:12 34.96284 -109.19399 25092 ft 394 kts 197°
2026-05-04 15:12 34.93601 -109.19576 25116 ft 391 kts 184°
2026-05-04 15:12 34.91075 -109.18241 25262 ft 433 kts 136°
2026-05-04 15:12 34.91034 -109.14781 24894 ft 441 kts 24°
2026-05-04 15:13 34.93111 -109.15479 22230 ft 350 kts 266°
2026-05-04 15:13 34.91153 -109.16800 19793 ft 448 kts 152°
2026-05-04 15:13 34.90402 -109.12812 19881 ft 462 kts 85°
2026-05-04 15:13 34.91230 -109.09174 20026 ft 438 kts 53°
2026-05-04 15:14 34.93570 -109.07642 20129 ft 370 kts 325°
2026-05-04 15:14 34.93427 -109.09447 18981 ft 347 kts 172°
2026-05-04 15:14 34.92745 -109.06656 15973 ft 453 kts 44°
2026-05-04 15:14 34.95109 -109.06779 15140 ft 354 kts 277°
2026-05-04 15:15 34.93587 -109.07959 13210 ft 391 kts 139°
2026-05-04 15:15 34.92955 -109.04697 13569 ft 423 kts 99°
2026-05-04 15:15 34.92685 -109.01452 15320 ft 349 kts 98°
2026-05-04 15:16 34.92394 -108.95898 15149 ft 344 kts 95°
2026-05-04 15:16 34.92327 -108.92782 13133 ft 402 kts 92°
2026-05-04 15:16 34.92594 -108.85740 12801 ft 384 kts 84°
2026-05-04 15:17 34.93024 -108.82756 13976 ft 338 kts 77°
2026-05-04 15:17 34.95343 -108.77879 10836 ft 371 kts 25°
2026-05-04 15:17 34.97984 -108.77761 7853 ft 311 kts 342°
2026-05-04 15:18 35.00020 -108.78553 7850 ft 298 kts 336°
2026-05-04 15:18 35.01879 -108.79573 7576 ft 298 kts 330°
2026-05-04 15:18 35.03771 -108.80727 7174 ft 310 kts 331°
2026-05-04 15:19 35.07516 -108.83305 6958 ft 301 kts 326°
2026-05-04 15:19 35.09213 -108.84726 7013 ft 290 kts 320°
2026-05-04 15:19 35.11901 -108.87366 8181 ft 216 kts 311°
2026-05-04 15:20 35.12772 -108.88821 8118 ft 207 kts 285°
2026-05-04 15:20 35.12944 -108.90082 8231 ft 190 kts 265°